Time,TemperatureF,DewpointF,PressureIn,WindDirection,WindDirectionDegrees,WindSpeedMPH,WindSpeedGustMPH,Humidity,HourlyPrecipIn,Conditions,Clouds,dailyrainin,SolarRadiationWatts/m^2,SoftwareType,DateUTC
2017-07-24 00:07:00,70.5,68.0,29.85,WSW,243,1.0,2.0,90,0.00,,,0.00,0,weatherlink.com 1.10,2017-07-24 04:07:00,
2017-07-24 00:22:00,70.2,67.0,29.84,ENE,65,0.0,1.0,90,0.00,,,0.00,0,weatherlink.com 1.10,2017-07-24 04:22:00,
2017-07-24 00:38:00,69.9,67.0,29.84,SE,125,0.0,2.0,91,0.00,,,0.00,0,weatherlink.com 1.10,2017-07-24 04:38:00,
2017-07-24 00:53:00,69.7,67.0,29.83,ESE,110,0.0,2.0,91,0.00,,,0.00,0,weatherlink.com 1.10,2017-07-24 04:53:00,
2017-07-24 01:08:00,69.5,67.0,29.82,NE,39,0.0,3.0,92,0.00,,,0.00,0,weatherlink.com 1.10,2017-07-24 05:08:00,
2017-07-24 01:23:00,69.3,67.0,29.83,NE,53,0.0,2.0,92,0.00,,,0.00,0,weatherlink.com 1.10,2017-07-24 05:23:00,
2017-07-24 01:38:00,69.2,67.0,29.83,NE,44,0.0,2.0,92,0.00,,,0.00,0,weatherlink.com 1.10,2017-07-24 05:38:00,
2017-07-24 01:53:00,69.2,67.0,29.82,North,10,0.0,4.0,92,0.00,,,0.00,0,weatherlink.com 1.10,2017-07-24 05:53:00,
2017-07-24 02:08:00,69.3,67.0,29.82,ENE,61,0.0,2.0,92,0.00,,,0.00,0,weatherlink.com 1.10,2017-07-24 06:08:00,
2017-07-24 02:23:00,69.3,67.0,29.82,NNE,24,0.0,3.0,92,0.00,,,0.00,0,weatherlink.com 1.10,2017-07-24 06:23:00,
2017-07-24 02:38:00,69.3,67.0,29.81,ENE,70,1.0,3.0,92,0.00,,,0.00,0,weatherlink.com 1.10,2017-07-24 06:38:00,
2017-07-24 02:53:00,69.3,67.0,29.80,NE,47,0.0,3.0,93,0.00,,,0.00,0,weatherlink.com 1.10,2017-07-24 06:53:00,
2017-07-24 03:08:00,69.1,67.0,29.79,SE,133,1.0,5.0,93,0.00,,,0.00,0,weatherlink.com 1.10,2017-07-24 07:08:00,
2017-07-24 03:23:00,68.9,67.0,29.79,WNW,299,0.0,2.0,93,0.00,,,0.00,0,weatherlink.com 1.10,2017-07-24 07:23:00,
2017-07-24 03:38:00,68.9,67.0,29.79,ESE,120,1.0,4.0,94,0.00,,,0.00,0,weatherlink.com 1.10,2017-07-24 07:38:00,
2017-07-24 03:53:00,68.9,67.0,29.79,NNE,20,0.0,3.0,94,0.00,,,0.00,0,weatherlink.com 1.10,2017-07-24 07:53:00,
2017-07-24 04:08:00,68.8,67.0,29.78,East,94,0.0,5.0,94,0.00,,,0.00,0,weatherlink.com 1.10,2017-07-24 08:08:00,
2017-07-24 04:23:00,68.9,67.0,29.78,ESE,103,1.0,3.0,94,0.00,,,0.00,0,weatherlink.com 1.10,2017-07-24 08:23:00,
2017-07-24 04:38:00,68.9,67.0,29.78,SSE,155,3.0,5.0,94,0.00,,,0.00,0,weatherlink.com 1.10,2017-07-24 08:38:00,
2017-07-24 04:53:00,68.8,67.0,29.77,South,179,2.0,5.0,93,0.00,,,0.00,0,weatherlink.com 1.10,2017-07-24 08:53:00,
2017-07-24 05:08:00,68.4,66.0,29.77,East,98,0.0,14.0,93,0.00,,,0.00,0,weatherlink.com 1.10,2017-07-24 09:08:00,
2017-07-24 05:23:00,67.9,66.0,29.76,NNE,25,0.0,6.0,94,0.00,,,0.00,0,weatherlink.com 1.10,2017-07-24 09:23:00,
2017-07-24 05:38:00,67.8,66.0,29.76,ESE,105,2.0,3.0,95,0.00,,,0.00,0,weatherlink.com 1.10,2017-07-24 09:38:00,
2017-07-24 05:53:00,67.8,66.0,29.76,SW,236,1.0,3.0,95,0.00,,,0.00,0,weatherlink.com 1.10,2017-07-24 09:53:00,
2017-07-24 06:08:00,67.4,66.0,29.77,NNE,13,1.0,8.0,96,0.00,,,0.00,0,weatherlink.com 1.10,2017-07-24 10:08:00,
2017-07-24 06:23:00,67.1,66.0,29.75,SE,134,2.0,7.0,96,0.00,,,0.00,0,weatherlink.com 1.10,2017-07-24 10:23:00,
2017-07-24 06:38:00,66.9,66.0,29.76,SSE,160,0.0,9.0,96,0.00,,,0.00,5,weatherlink.com 1.10,2017-07-24 10:38:00,
2017-07-24 06:53:00,66.9,66.0,29.75,East,81,0.0,6.0,97,0.00,,,0.00,9,weatherlink.com 1.10,2017-07-24 10:53:00,
2017-07-24 07:08:00,66.9,66.0,29.75,SSE,148,0.0,6.0,97,0.00,,,0.00,0,weatherlink.com 1.10,2017-07-24 11:08:00,
2017-07-24 07:23:00,67.0,66.0,29.75,NW,321,3.0,4.0,97,0.00,,,0.00,9,weatherlink.com 1.10,2017-07-24 11:23:00,
2017-07-24 07:38:00,67.2,66.0,29.75,ESE,103,0.0,3.0,97,0.00,,,0.00,0,weatherlink.com 1.10,2017-07-24 11:38:00,
2017-07-24 07:53:00,67.2,66.0,29.75,NNE,32,1.0,8.0,97,0.00,,,0.00,12,weatherlink.com 1.10,2017-07-24 11:53:00,
2017-07-24 08:08:00,67.2,66.0,29.74,NW,307,5.0,7.0,97,0.00,,,0.00,32,weatherlink.com 1.10,2017-07-24 12:08:00,
2017-07-24 08:23:00,67.0,66.0,29.74,East,89,2.0,8.0,97,0.00,,,0.00,25,weatherlink.com 1.10,2017-07-24 12:23:00,
2017-07-24 08:38:00,66.9,66.0,29.75,NE,46,0.0,8.0,97,0.00,,,0.00,25,weatherlink.com 1.10,2017-07-24 12:38:00,
2017-07-24 08:53:00,67.0,67.0,29.75,ESE,105,1.0,12.0,98,0.00,,,0.00,19,weatherlink.com 1.10,2017-07-24 12:53:00,
2017-07-24 09:08:00,66.2,65.0,29.74,NNE,14,1.0,6.0,97,0.00,,,0.00,25,weatherlink.com 1.10,2017-07-24 13:08:00,
2017-07-24 09:24:00,64.8,64.0,29.73,WNW,294,0.0,8.0,97,0.00,,,0.00,26,weatherlink.com 1.10,2017-07-24 13:24:00,
2017-07-24 09:38:00,64.1,63.0,29.74,ENE,57,11.0,13.0,97,0.00,,,0.00,21,weatherlink.com 1.10,2017-07-24 13:38:00,
2017-07-24 09:53:00,63.7,63.0,29.75,SE,145,0.0,17.0,97,0.00,,,0.00,32,weatherlink.com 1.10,2017-07-24 13:53:00,
2017-07-24 10:09:00,63.4,63.0,29.75,ESE,120,4.0,9.0,98,0.00,,,0.00,26,weatherlink.com 1.10,2017-07-24 14:09:00,
2017-07-24 10:24:00,63.2,63.0,29.76,North,355,2.0,15.0,98,0.00,,,0.00,39,weatherlink.com 1.10,2017-07-24 14:24:00,
2017-07-24 10:39:00,62.5,62.0,29.76,NE,54,4.0,11.0,97,0.00,,,0.00,40,weatherlink.com 1.10,2017-07-24 14:39:00,
2017-07-24 10:54:00,61.7,61.0,29.78,East,81,3.0,13.0,97,0.00,,,0.00,21,weatherlink.com 1.10,2017-07-24 14:54:00,
2017-07-24 11:09:00,61.3,61.0,29.77,NE,42,4.0,11.0,97,0.00,,,0.00,56,weatherlink.com 1.10,2017-07-24 15:09:00,
2017-07-24 11:24:00,60.8,60.0,29.78,NNE,24,2.0,10.0,97,0.00,,,0.00,39,weatherlink.com 1.10,2017-07-24 15:24:00,
2017-07-24 11:39:00,60.7,60.0,29.78,WNW,288,3.0,11.0,98,0.00,,,0.00,40,weatherlink.com 1.10,2017-07-24 15:39:00,
2017-07-24 11:54:00,60.5,60.0,29.78,North,355,6.0,10.0,98,0.00,,,0.00,118,weatherlink.com 1.10,2017-07-24 15:54:00,
2017-07-24 12:09:00,60.5,60.0,29.77,WSW,241,4.0,13.0,98,0.00,,,0.00,116,weatherlink.com 1.10,2017-07-24 16:09:00,
2017-07-24 12:24:00,60.8,60.0,29.77,NW,318,6.0,8.0,98,0.00,,,0.00,88,weatherlink.com 1.10,2017-07-24 16:24:00,
2017-07-24 12:39:00,60.7,60.0,29.78,NW,307,1.0,14.0,98,0.00,,,0.00,162,weatherlink.com 1.10,2017-07-24 16:39:00,
2017-07-24 12:54:00,61.0,61.0,29.80,NE,42,11.0,12.0,98,0.00,,,0.00,163,weatherlink.com 1.10,2017-07-24 16:54:00,
2017-07-24 13:09:00,60.7,60.0,29.80,NE,44,6.0,14.0,98,0.00,,,0.00,155,weatherlink.com 1.10,2017-07-24 17:09:00,
2017-07-24 13:24:00,60.3,60.0,29.81,SW,236,2.0,10.0,98,0.00,,,0.00,118,weatherlink.com 1.10,2017-07-24 17:24:00,
2017-07-24 13:39:00,60.2,60.0,29.82,ESE,111,2.0,9.0,98,0.00,,,0.00,151,weatherlink.com 1.10,2017-07-24 17:39:00,
2017-07-24 13:54:00,60.4,60.0,29.81,North,11,1.0,8.0,98,0.00,,,0.00,260,weatherlink.com 1.10,2017-07-24 17:54:00,
2017-07-24 14:09:00,61.0,61.0,29.81,NE,52,3.0,12.0,98,0.00,,,0.00,329,weatherlink.com 1.10,2017-07-24 18:09:00,
2017-07-24 14:24:00,61.5,61.0,29.82,ESE,122,4.0,10.0,97,0.00,,,0.00,241,weatherlink.com 1.10,2017-07-24 18:24:00,
2017-07-24 14:39:00,61.8,61.0,29.82,West,264,0.0,9.0,96,0.00,,,0.00,250,weatherlink.com 1.10,2017-07-24 18:39:00,
2017-07-24 14:54:00,62.4,61.0,29.82,East,79,1.0,6.0,95,0.00,,,0.00,290,weatherlink.com 1.10,2017-07-24 18:54:00,
2017-07-24 15:09:00,63.1,61.0,29.82,NE,39,1.0,8.0,93,0.00,,,0.00,308,weatherlink.com 1.10,2017-07-24 19:09:00,
2017-07-24 15:24:00,63.6,61.0,29.82,NE,55,1.0,8.0,90,0.00,,,0.00,336,weatherlink.com 1.10,2017-07-24 19:24:00,
2017-07-24 15:39:00,64.5,61.0,29.83,NNE,32,3.0,7.0,88,0.00,,,0.00,320,weatherlink.com 1.10,2017-07-24 19:39:00,
2017-07-24 15:54:00,65.0,61.0,29.83,South,191,1.0,7.0,87,0.00,,,0.00,246,weatherlink.com 1.10,2017-07-24 19:54:00,
2017-07-24 16:09:00,65.0,60.0,29.84,East,85,2.0,7.0,85,0.00,,,0.00,218,weatherlink.com 1.10,2017-07-24 20:09:00,
2017-07-24 16:24:00,65.0,60.0,29.84,SE,135,2.0,9.0,85,0.00,,,0.00,232,weatherlink.com 1.10,2017-07-24 20:24:00,
2017-07-24 16:39:00,65.3,61.0,29.84,ENE,65,1.0,7.0,85,0.00,,,0.00,258,weatherlink.com 1.10,2017-07-24 20:39:00,
2017-07-24 16:54:00,65.8,61.0,29.84,NE,34,0.0,7.0,85,0.00,,,0.00,243,weatherlink.com 1.10,2017-07-24 20:54:00,
2017-07-24 17:09:00,66.5,62.0,29.84,NNW,342,4.0,7.0,84,0.00,,,0.00,211,weatherlink.com 1.10,2017-07-24 21:09:00,
2017-07-24 17:24:00,66.5,61.0,29.84,NNW,338,4.0,5.0,82,0.00,,,0.00,181,weatherlink.com 1.10,2017-07-24 21:24:00,
2017-07-24 17:39:00,66.5,61.0,29.84,NNE,30,3.0,6.0,82,0.00,,,0.00,165,weatherlink.com 1.10,2017-07-24 21:39:00,
2017-07-24 17:54:00,66.3,61.0,29.85,ENE,74,0.0,6.0,82,0.00,,,0.00,104,weatherlink.com 1.10,2017-07-24 21:54:00,
2017-07-24 18:09:00,66.2,61.0,29.85,West,278,0.0,6.0,83,0.00,,,0.00,104,weatherlink.com 1.10,2017-07-24 22:09:00,
2017-07-24 18:24:00,66.3,61.0,29.86,North,11,0.0,4.0,83,0.00,,,0.00,74,weatherlink.com 1.10,2017-07-24 22:24:00,
2017-07-24 18:39:00,66.1,61.0,29.87,NNW,336,1.0,3.0,83,0.00,,,0.00,56,weatherlink.com 1.10,2017-07-24 22:39:00,
2017-07-24 18:54:00,65.9,61.0,29.87,ENE,70,0.0,2.0,84,0.00,,,0.00,23,weatherlink.com 1.10,2017-07-24 22:54:00,